Zurück zum Katalog

CENTISPACE-2 S9

AktivNavigationLEO
NORAD 68358·PAYLOAD·🇨🇳 China

Gestartet Mar 22, 2026 von Yellow Sea Launch Area

Loading…

Nächste Überflüge (nächste 24 Stunden)

TLE

AktuellSource: Space-Track

Epoche: Sep 13, 2026, 22:12 UTC

1 68358U 26060J   26256.92513709 -.00000134  00000-0  98707-5 0  9996
2 68358  54.9798  51.0985 0007128 261.9976  98.0192 14.25316660 25594

Verfolge CENTISPACE-2 S9 in Echtzeit mit AllMySat

Download on the App Store